QPF
0.00 0.00 0.00 0.00 0.00 0.01 0.00 0.00 0.00 0.00 0.00 0.00 0.00 0.00 0.00 0.00 0.00 0.02 0.00 0.00 0.00 0.00 0.00 0.00 0.00 0.00 0.00 0.00 0.00 0.00 0.00 0.00 0.00 0.00 0.00 0.00 0.00 0.00 0.00 0.00 0.00 0.00 0.00 0.00 0.00 0.00 0.00 0.00 0.00
0.00 0.00 0.00 0.00 0.00 0.00 0.00 0.00 0.00 0.00 0.00 0.00 0.00 0.00 0.00 0.00 0.00 0.00 0.00 0.00 0.00 0.00 0.00 0.00 0.00 0.00 0.00 0.00 0.00 0.00 0.00 0.00 0.00 0.00 0.00 0.00 0.00 0.00 0.00 0.00 0.00 0.00 0.00 0.00 0.00 0.00 0.00 0.00 0.00
0.00 0.00 0.00 0.00 0.00 0.00 0.00 0.00 0.00 0.00 0.00 0.00 0.00 0.00 0.00 0.00 0.00 0.00 0.00 0.00 0.00 0.00 0.00 0.00 0.00 0.00 0.00 0.00 0.00 0.00 0.00 0.00 0.00 0.00 0.00 0.00 0.00 0.00 0.00 0.00 0.00 0.00 0.00 0.00 0.00 0.00 0.00 0.00 0.00
0.00 0.00 0.00 0.00 0.02 0.01 0.00 0.00 0.00 0.00 0.00 0.00 0.00 0.00 0.00 0.00 0.00 0.00 0.00 0.00 0.00 0.00 0.00 0.00 0.00 0.00 0.00 0.00 0.00 0.00 0.00 0.00 0.00 0.00 0.00 0.00 0.00 0.00 0.00 0.00 0.00 0.00 0.00 0.00 0.00 0.00 0.00 0.00 0.00
0.00 0.00 0.00 0.00 0.01 0.01 0.01 0.00 0.00 0.00 0.00 0.00 0.00 0.00 0.00 0.00 0.00 0.00 0.00 0.00 0.00 0.00 0.00 0.00 0.00 0.00 0.00 0.00 0.00 0.00 0.00 0.00 0.00 0.00 0.00 0.00 0.00 0.00 0.00 0.00 0.00 0.00 0.00 0.00 0.00 0.00 0.00 0.00 0.00
0.00 0.00 0.00 0.00 0.01 0.00 0.00 0.00 0.00 0.01 0.00 0.00 0.00 0.00 0.00 0.00 0.00 0.00 0.00 0.00 0.00 0.00 0.00 0.00 0.00 0.00 0.00 0.00 0.00 0.00 0.00 0.00 0.00 0.00 0.00 0.00 0.00 0.00 0.00 0.00 0.00 0.00 0.00 0.00 0.00 0.00 0.00 0.00 0.00
0.00 0.00 0.00 0.00 0.01 0.01 0.01 0.00 0.00 0.00 0.00 0.00 0.00 0.00 0.00 0.00 0.00 0.00 0.00 0.00 0.00 0.00 0.00 0.00 0.00 0.00 0.00 0.00 0.00 0.00 0.00 0.00 0.00 0.00 0.00 0.00 0.00 0.00 0.00 0.00 0.00 0.00 0.00 0.00 0.00 0.00 0.00 0.00 0.00
0.00 0.00 0.00 0.00 0.00 0.01 0.01 0.00 0.00 0.00 0.01 0.01 0.00 0.00 0.00 0.00 0.00 0.00 0.00 0.00 0.00 0.00 0.00 0.00 0.00 0.00 0.00 0.00 0.00 0.00 0.00 0.00 0.00 0.00 0.00 0.00 0.00 0.00 0.00 0.00 0.00 0.00 0.00 0.00 0.00 0.00 0.00 0.01 0.01
0.00 0.00 0.00 0.00 0.00 0.00 0.01 0.01 0.01 0.01 0.01 0.00 0.00 0.00 0.00 0.00 0.00 0.00 0.00 0.00 0.00 0.00 0.00 0.00 0.00 0.00 0.00 0.00 0.00 0.00 0.00 0.00 0.00 0.00 0.00 0.00 0.00 0.01 0.02 0.02 0.02 0.01 0.01 0.01 0.00 0.00 0.01 0.01 0.00
0.00 0.00 0.00 0.00 0.00 0.00 0.00 0.00 0.00 0.00 0.01 0.01 0.02 0.02 0.00 0.00 0.00 0.00 0.00 0.00 0.00 0.00 0.00 0.00 0.00 0.00 0.00 0.00 0.00 0.00 0.00 0.01 0.01 0.01 0.03 0.03 0.05 0.04 0.03 0.08 0.08 0.04 0.03 0.02 0.01 0.02 0.02 0.01 0.00
0.00 0.00 0.00 0.00 0.00 0.00 0.00 0.00 0.00 0.00 0.01 0.05 0.18 0.16 0.02 0.00 0.00 0.00 0.00 0.00 0.00 0.00 0.00 0.00 0.00 0.00 0.00 0.00 0.00 0.00 0.02 0.07 0.09 0.10 0.14 0.15 0.17 0.11 0.06 0.09 0.12 0.12 0.07 0.03 0.03 0.04 0.03 0.02 0.04
0.00 0.00 0.00 0.00 0.00 0.00 0.00 0.00 0.00 0.00 0.00 0.08 0.30 0.27 0.04 0.01 0.00 0.00 0.00 0.00 0.00 0.00 0.00 0.00 0.00 0.00 0.00 0.00 0.01 0.01 0.03 0.06 0.08 0.07 0.09 0.16 0.14 0.12 0.09 0.09 0.08 0.12 0.11 0.11 0.07 0.05 0.05 0.05 0.04
0.00 0.00 0.00 0.00 0.00 0.00 0.00 0.00 0.00 0.00 0.00 0.01 0.07 0.13 0.05 0.01 0.00 0.00 0.00 0.00 0.00 0.00 0.00 0.00 0.00 0.00 0.00 0.01 0.02 0.03 0.03 0.05 0.05 0.08 0.11 0.14 0.15 0.14 0.13 0.10 0.09 0.04 0.06 0.10 0.13 0.06 0.06 0.07 0.04
0.00 0.00 0.00 0.00 0.00 0.00 0.00 0.00 0.00 0.00 0.00 0.00 0.03 0.05 0.04 0.02 0.00 0.00 0.00 0.00 0.00 0.00 0.00 0.00 0.00 0.00 0.01 0.02 0.04 0.06 0.06 0.06 0.08 0.12 0.11 0.18 0.20 0.18 0.14 0.13 0.13 0.09 0.10 0.12 0.13 0.10 0.11 0.08 0.08
0.00 0.00 0.00 0.00 0.00 0.00 0.00 0.00 0.00 0.00 0.00 0.00 0.00 0.01 0.01 0.01 0.00 0.00 0.00 0.00 0.00 0.00 0.00 0.00 0.00 0.01 0.03 0.06 0.08 0.11 0.08 0.10 0.13 0.15 0.13 0.15 0.18 0.24 0.23 0.21 0.20 0.21 0.21 0.19 0.16 0.14 0.17 0.11 0.09
0.00 0.00 0.00 0.00 0.00 0.00 0.00 0.00 0.00 0.00 0.00 0.00 0.00 0.00 0.00 0.00 0.00 0.00 0.00 0.00 0.00 0.00 0.00 0.00 0.00 0.02 0.09 0.10 0.09 0.08 0.07 0.10 0.10 0.10 0.09 0.09 0.14 0.19 0.23 0.21 0.23 0.24 0.23 0.24 0.25 0.24 0.25 0.23 0.21
0.00 0.00 0.00 0.00 0.00 0.00 0.00 0.00 0.00 0.00 0.00 0.00 0.00 0.00 0.00 0.00 0.00 0.00 0.00 0.00 0.00 0.00 0.01 0.01 0.02 0.05 0.07 0.07 0.05 0.03 0.04 0.05 0.05 0.05 0.05 0.05 0.05 0.07 0.09 0.09 0.11 0.10 0.11 0.13 0.13 0.21 0.20 0.17 0.21
0.00 0.00 0.00 0.00 0.00 0.00 0.00 0.00 0.00 0.00 0.00 0.00 0.00 0.00 0.00 0.00 0.01 0.02 0.03 0.02 0.01 0.03 0.04 0.04 0.04 0.04 0.04 0.02 0.01 0.01 0.01 0.01 0.01 0.01 0.01 0.01 0.01 0.01 0.01 0.01 0.01 0.01 0.02 0.02 0.03 0.05 0.07 0.07 0.08
0.00 0.00 0.00 0.00 0.00 0.00 0.00 0.00 0.00 0.00 0.00 0.00 0.00 0.00 0.01 0.02 0.05 0.10 0.14 0.11 0.13 0.16 0.13 0.07 0.05 0.04 0.03 0.02 0.01 0.00 0.00 0.00 0.00 0.00 0.00 0.00 0.00 0.00 0.00 0.00 0.00 0.00 0.00 0.00 0.00 0.01 0.01 0.02 0.03
0.00 0.00 0.00 0.00 0.00 0.00 0.00 0.00 0.00 0.00 0.00 0.00 0.00 0.01 0.05 0.15 0.24 0.31 0.39 0.34 0.33 0.31 0.24 0.12 0.05 0.03 0.02 0.01 0.01 0.00 0.00 0.00 0.00 0.00 0.00 0.00 0.00 0.00 0.00 0.00 0.00 0.00 0.00 0.00 0.00 0.01 0.01 0.00 0.01
0.00 0.00 0.00 0.00 0.00 0.00 0.00 0.00 0.00 0.00 0.00 0.00 0.00 0.01 0.04 0.16 0.33 0.52 0.75 0.73 0.59 0.48 0.30 0.13 0.05 0.02 0.01 0.01 0.00 0.00 0.00 0.00 0.00 0.00 0.00 0.00 0.00 0.00 0.00 0.00 0.00 0.00 0.00 0.00 0.00 0.00 0.01 0.01 0.01
0.00 0.00 0.00 0.00 0.00 0.00 0.00 0.00 0.00 0.00 0.00 0.00 0.00 0.01 0.07 0.20 0.44 0.80 1.00 0.99 0.85 0.58 0.25 0.11 0.05 0.02 0.01 0.01 0.01 0.01 0.00 0.00 0.00 0.00 0.00 0.00 0.00 0.00 0.00 0.00 0.00 0.00 0.00 0.00 0.00 0.01 0.01 0.02 0.01
0.00 0.00 0.00 0.00 0.00 0.00 0.00 0.00 0.00 0.00 0.00 0.00 0.01 0.04 0.14 0.24 0.39 0.57 0.63 0.70 0.67 0.48 0.26 0.17 0.09 0.06 0.06 0.04 0.03 0.02 0.01 0.00 0.00 0.00 0.00 0.00 0.00 0.00 0.00 0.00 0.00 0.00 0.00 0.00 0.01 0.01 0.01 0.02 0.03
0.00 0.00 0.00 0.00 0.01 0.04 0.03 0.01 0.01 0.00 0.00 0.00 0.01 0.03 0.08 0.15 0.29 0.40 0.40 0.37 0.34 0.26 0.19 0.14 0.11 0.14 0.12 0.07 0.05 0.05 0.04 0.03 0.02 0.01 0.00 0.00 0.00 0.00 0.00 0.00 0.00 0.00 0.00 0.01 0.01 0.01 0.02 0.04 0.04
0.00 0.00 0.00 0.02 0.08 0.15 0.07 0.02 0.03 0.01 0.00 0.00 0.01 0.03 0.08 0.16 0.24 0.30 0.35 0.34 0.25 0.18 0.13 0.09 0.08 0.09 0.10 0.08 0.07 0.07 0.07 0.06 0.05 0.03 0.01 0.01 0.00 0.00 0.00 0.00 0.00 0.00 0.00 0.00 0.01 0.01 0.02 0.03 0.06
0.00 0.00 0.00 0.00 0.01 0.01 0.01 0.02 0.02 0.01 0.00 0.00 0.01 0.02 0.05 0.08 0.11 0.14 0.17 0.17 0.15 0.10 0.06 0.05 0.04 0.04 0.05 0.04 0.06 0.07 0.09 0.07 0.06 0.08 0.05 0.02 0.01 0.00 0.00 0.00 0.00 0.00 0.00 0.00 0.01 0.01 0.02 0.03 0.05
0.00 0.00 0.00 0.00 0.00 0.00 0.00 0.04 0.05 0.04 0.03 0.01 0.00 0.01 0.01 0.02 0.02 0.03 0.04 0.04 0.04 0.03 0.03 0.03 0.03 0.03 0.03 0.03 0.05 0.06 0.10 0.11 0.10 0.10 0.07 0.05 0.05 0.03 0.01 0.01 0.01 0.01 0.01 0.01 0.01 0.01 0.02 0.03 0.05
0.00 0.00 0.00 0.00 0.00 0.00 0.00 0.06 0.13 0.13 0.09 0.02 0.00 0.00 0.00 0.00 0.01 0.01 0.01 0.01 0.01 0.01 0.02 0.02 0.02 0.02 0.02 0.03 0.04 0.05 0.06 0.09 0.11 0.09 0.09 0.10 0.09 0.07 0.06 0.04 0.04 0.03 0.01 0.01 0.01 0.02 0.02 0.03 0.04
0.00 0.00 0.00 0.00 0.00 0.00 0.00 0.05 0.07 0.05 0.02 0.00 0.00 0.00 0.00 0.00 0.00 0.00 0.00 0.00 0.01 0.01 0.01 0.01 0.01 0.01 0.01 0.02 0.02 0.02 0.03 0.05 0.08 0.10 0.11 0.12 0.12 0.11 0.09 0.07 0.06 0.04 0.03 0.02 0.01 0.01 0.01 0.02 0.02
0.00 0.00 0.00 0.00 0.00 0.00 0.01 0.04 0.03 0.02 0.01 0.00 0.00 0.00 0.00 0.00 0.00 0.00 0.00 0.00 0.00 0.00 0.01 0.01 0.01 0.02 0.02 0.02 0.01 0.01 0.01 0.02 0.03 0.05 0.08 0.11 0.12 0.11 0.11 0.10 0.08 0.06 0.04 0.03 0.02 0.01 0.01 0.01 0.02
MSLP
1006.21 1006.75 1007.32 1007.77 1007.96 1007.84 1007.41 1006.74 1005.97 1005.27 1004.77 1004.55 1004.62 1004.93 1005.37 1005.83 1006.20 1006.46 1006.59 1006.69 1006.82 1007.07 1007.51 1008.11 1008.85 1009.62 1010.33 1010.89 1011.28 1011.49 1011.60 1011.67 1011.78 1012.00 1012.33 1012.74 1013.20 1013.63 1013.98 1014.22 1014.34 1014.39 1014.41 1014.45 1014.53 1014.66 1014.84 1015.03 1015.18
1006.39 1006.98 1007.52 1007.88 1007.96 1007.70 1007.14 1006.37 1005.54 1004.81 1004.31 1004.10 1004.17 1004.46 1004.88 1005.30 1005.64 1005.89 1006.07 1006.24 1006.50 1006.90 1007.49 1008.24 1009.08 1009.91 1010.64 1011.18 1011.53 1011.70 1011.78 1011.83 1011.94 1012.17 1012.50 1012.92 1013.35 1013.74 1014.04 1014.21 1014.29 1014.31 1014.33 1014.39 1014.52 1014.70 1014.92 1015.14 1015.31
1006.65 1007.27 1007.77 1008.04 1007.99 1007.59 1006.90 1006.05 1005.18 1004.44 1003.96 1003.77 1003.85 1004.13 1004.52 1004.90 1005.21 1005.45 1005.65 1005.89 1006.24 1006.77 1007.49 1008.35 1009.27 1010.15 1010.89 1011.43 1011.76 1011.91 1011.98 1012.04 1012.16 1012.40 1012.73 1013.13 1013.51 1013.84 1014.05 1014.16 1014.18 1014.18 1014.20 1014.30 1014.48 1014.73 1015.00 1015.25 1015.43
1006.91 1007.53 1007.97 1008.14 1007.96 1007.44 1006.66 1005.76 1004.88 1004.18 1003.74 1003.59 1003.70 1003.99 1004.34 1004.68 1004.94 1005.15 1005.35 1005.61 1006.03 1006.64 1007.45 1008.39 1009.37 1010.28 1011.03 1011.57 1011.90 1012.06 1012.14 1012.23 1012.38 1012.63 1012.96 1013.33 1013.66 1013.91 1014.05 1014.08 1014.06 1014.03 1014.07 1014.21 1014.44 1014.75 1015.07 1015.35 1015.53
1007.09 1007.67 1008.03 1008.08 1007.79 1007.18 1006.36 1005.45 1004.62 1004.00 1003.65 1003.58 1003.75 1004.04 1004.37 1004.65 1004.86 1005.00 1005.16 1005.42 1005.85 1006.50 1007.34 1008.32 1009.33 1010.25 1011.01 1011.56 1011.90 1012.09 1012.21 1012.33 1012.52 1012.80 1013.13 1013.47 1013.75 1013.94 1014.01 1013.99 1013.93 1013.89 1013.95 1014.12 1014.40 1014.75 1015.11 1015.41 1015.58
1007.14 1007.63 1007.87 1007.81 1007.42 1006.75 1005.93 1005.08 1004.35 1003.87 1003.66 1003.71 1003.95 1004.27 1004.58 1004.81 1004.94 1005.01 1005.10 1005.31 1005.71 1006.34 1007.17 1008.15 1009.15 1010.07 1010.83 1011.38 1011.73 1011.95 1012.11 1012.28 1012.51 1012.82 1013.16 1013.49 1013.74 1013.89 1013.92 1013.86 1013.78 1013.74 1013.81 1014.00 1014.31 1014.69 1015.06 1015.35 1015.51
1007.05 1007.40 1007.50 1007.31 1006.84 1006.15 1005.37 1004.63 1004.07 1003.76 1003.73 1003.93 1004.27 1004.64 1004.94 1005.12 1005.17 1005.15 1005.15 1005.28 1005.62 1006.19 1006.98 1007.91 1008.88 1009.77 1010.50 1011.05 1011.41 1011.65 1011.84 1012.05 1012.32 1012.65 1013.01 1013.34 1013.59 1013.72 1013.73 1013.66 1013.58 1013.54 1013.61 1013.82 1014.13 1014.50 1014.86 1015.13 1015.27
1006.88 1007.05 1006.99 1006.67 1006.13 1005.44 1004.74 1004.15 1003.77 1003.67 1003.84 1004.20 1004.65 1005.08 1005.38 1005.52 1005.50 1005.39 1005.31 1005.35 1005.60 1006.09 1006.81 1007.67 1008.57 1009.41 1010.10 1010.62 1010.97 1011.22 1011.43 1011.66 1011.95 1012.30 1012.67 1013.01 1013.27 1013.40 1013.42 1013.36 1013.29 1013.26 1013.33 1013.53 1013.82 1014.17 1014.49 1014.73 1014.83
1006.67 1006.65 1006.43 1005.99 1005.39 1004.73 1004.13 1003.69 1003.51 1003.61 1003.97 1004.48 1005.04 1005.53 1005.84 1005.95 1005.88 1005.70 1005.53 1005.48 1005.64 1006.05 1006.68 1007.46 1008.28 1009.05 1009.69 1010.16 1010.49 1010.72 1010.92 1011.16 1011.46 1011.81 1012.19 1012.54 1012.81 1012.97 1013.01 1012.97 1012.91 1012.88 1012.95 1013.12 1013.38 1013.68 1013.96 1014.16 1014.23
1006.50 1006.32 1005.94 1005.40 1004.77 1004.14 1003.63 1003.34 1003.32 1003.59 1004.10 1004.74 1005.38 1005.90 1006.22 1006.32 1006.20 1005.97 1005.74 1005.63 1005.72 1006.05 1006.59 1007.29 1008.03 1008.72 1009.30 1009.72 1010.01 1010.22 1010.40 1010.62 1010.90 1011.25 1011.63 1011.99 1012.27 1012.45 1012.52 1012.50 1012.46 1012.44 1012.49 1012.63 1012.84 1013.09 1013.31 1013.47 1013.52
1006.42 1006.10 1005.61 1005.00 1004.35 1003.75 1003.32 1003.13 1003.23 1003.62 1004.21 1004.91 1005.58 1006.12 1006.43 1006.50 1006.37 1006.11 1005.85 1005.70 1005.74 1006.01 1006.49 1007.11 1007.78 1008.41 1008.93 1009.31 1009.57 1009.75 1009.91 1010.11 1010.37 1010.70 1011.07 1011.42 1011.71 1011.91 1012.01 1012.02 1012.00 1011.98 1012.01 1012.11 1012.27 1012.46 1012.64 1012.76 1012.80
1006.46 1006.05 1005.48 1004.83 1004.17 1003.60 1003.22 1003.08 1003.23 1003.64 1004.24 1004.93 1005.57 1006.07 1006.36 1006.41 1006.27 1006.01 1005.75 1005.60 1005.62 1005.86 1006.30 1006.87 1007.49 1008.08 1008.56 1008.92 1009.16 1009.33 1009.48 1009.66 1009.90 1010.21 1010.56 1010.91 1011.21 1011.42 1011.54 1011.58 1011.57 1011.55 1011.57 1011.63 1011.75 1011.89 1012.03 1012.12 1012.15
1006.58 1006.13 1005.53 1004.87 1004.22 1003.66 1003.28 1003.14 1003.27 1003.62 1004.15 1004.74 1005.30 1005.72 1005.95 1005.98 1005.84 1005.60 1005.37 1005.24 1005.28 1005.52 1005.94 1006.49 1007.09 1007.67 1008.15 1008.52 1008.77 1008.95 1009.11 1009.29 1009.53 1009.82 1010.16 1010.49 1010.79 1011.02 1011.16 1011.22 1011.23 1011.21 1011.22 1011.25 1011.33 1011.43 1011.54 1011.61 1011.63
1006.74 1006.29 1005.70 1005.05 1004.41 1003.86 1003.46 1003.26 1003.29 1003.52 1003.89 1004.33 1004.74 1005.05 1005.21 1005.21 1005.07 1004.88 1004.70 1004.62 1004.70 1004.96 1005.39 1005.95 1006.56 1007.14 1007.65 1008.06 1008.36 1008.59 1008.79 1008.99 1009.24 1009.53 1009.85 1010.19 1010.49 1010.72 1010.88 1010.96 1010.99 1010.98 1010.98 1011.00 1011.06 1011.13 1011.21 1011.26 1011.28
1006.91 1006.47 1005.91 1005.29 1004.67 1004.11 1003.67 1003.39 1003.28 1003.33 1003.50 1003.74 1003.98 1004.16 1004.24 1004.21 1004.10 1003.96 1003.85 1003.83 1003.97 1004.27 1004.72 1005.29 1005.91 1006.53 1007.09 1007.55 1007.93 1008.22 1008.48 1008.72 1008.99 1009.29 1009.62 1009.95 1010.25 1010.50 1010.68 1010.79 1010.84 1010.85 1010.86 1010.87 1010.91 1010.96 1011.02 1011.06 1011.06
1007.03 1006.62 1006.10 1005.53 1004.94 1004.38 1003.90 1003.51 1003.25 1003.11 1003.08 1003.11 1003.17 1003.22 1003.23 1003.20 1003.12 1003.05 1003.02 1003.07 1003.26 1003.59 1004.06 1004.63 1005.27 1005.91 1006.51 1007.04 1007.48 1007.85 1008.17 1008.46 1008.76 1009.08 1009.41 1009.74 1010.05 1010.31 1010.52 1010.66 1010.74 1010.78 1010.80 1010.82 1010.85 1010.89 1010.93 1010.95 1010.93
1007.12 1006.73 1006.26 1005.75 1005.21 1004.67 1004.15 1003.69 1003.29 1002.98 1002.76 1002.61 1002.52 1002.47 1002.44 1002.41 1002.39 1002.39 1002.43 1002.56 1002.78 1003.13 1003.59 1004.14 1004.76 1005.40 1006.02 1006.58 1007.07 1007.50 1007.87 1008.21 1008.53 1008.86 1009.19 1009.52 1009.83 1010.11 1010.34 1010.52 1010.64 1010.71 1010.76 1010.80 1010.83 1010.87 1010.89 1010.89 1010.84
1007.17 1006.82 1006.42 1005.99 1005.52 1005.03 1004.52 1004.01 1003.52 1003.08 1002.71 1002.42 1002.23 1002.12 1002.07 1002.08 1002.12 1002.20 1002.32 1002.49 1002.74 1003.06 1003.48 1003.98 1004.54 1005.13 1005.71 1006.27 1006.77 1007.22 1007.61 1007.96 1008.29 1008.61 1008.93 1009.25 1009.57 1009.86 1010.12 1010.34 1010.50 1010.62 1010.71 1010.76 1010.80 1010.83 1010.84 1010.82 1010.75
1007.23 1006.93 1006.62 1006.30 1005.95 1005.55 1005.09 1004.59 1004.06 1003.54 1003.08 1002.72 1002.46 1002.33 1002.30 1002.36 1002.48 1002.63 1002.81 1003.00 1003.23 1003.51 1003.84 1004.23 1004.69 1005.18 1005.69 1006.19 1006.65 1007.07 1007.44 1007.77 1008.08 1008.37 1008.66 1008.96 1009.26 1009.57 1009.85 1010.10 1010.32 1010.48 1010.60 1010.69 1010.74 1010.76 1010.76 1010.73 1010.64
1007.32 1007.10 1006.92 1006.75 1006.55 1006.28 1005.92 1005.48 1004.96 1004.43 1003.94 1003.54 1003.27 1003.14 1003.15 1003.27 1003.45 1003.67 1003.88 1004.08 1004.27 1004.46 1004.67 1004.93 1005.23 1005.59 1005.97 1006.37 1006.75 1007.10 1007.41 1007.68 1007.92 1008.15 1008.39 1008.65 1008.94 1009.24 1009.54 1009.83 1010.08 1010.29 1010.45 1010.56 1010.62 1010.65 1010.64 1010.60 1010.51
1007.45 1007.35 1007.33 1007.35 1007.34 1007.24 1007.03 1006.68 1006.23 1005.72 1005.24 1004.84 1004.58 1004.47 1004.52 1004.69 1004.92 1005.17 1005.40 1005.57 1005.69 1005.78 1005.86 1005.96 1006.10 1006.30 1006.53 1006.80 1007.06 1007.31 1007.52 1007.70 1007.86 1008.02 1008.19 1008.39 1008.63 1008.91 1009.22 1009.53 1009.81 1010.06 1010.25 1010.38 1010.46 1010.49 1010.48 1010.44 1010.36
1007.61 1007.67 1007.84 1008.07 1008.28 1008.38 1008.33 1008.11 1007.75 1007.30 1006.84 1006.46 1006.21 1006.11 1006.18 1006.37 1006.62 1006.88 1007.09 1007.22 1007.27 1007.25 1007.20 1007.15 1007.14 1007.18 1007.27 1007.40 1007.55 1007.68 1007.79 1007.87 1007.93 1007.99 1008.08 1008.20 1008.39 1008.63 1008.92 1009.23 1009.53 1009.80 1010.01 1010.16 1010.24 1010.28 1010.27 1010.24 1010.18
1007.76 1008.00 1008.39 1008.85 1009.27 1009.58 1009.70 1009.61 1009.35 1008.96 1008.53 1008.16 1007.90 1007.80 1007.85 1008.02 1008.26 1008.49 1008.66 1008.74 1008.72 1008.61 1008.46 1008.30 1008.17 1008.09 1008.07 1008.09 1008.14 1008.17 1008.19 1008.17 1008.13 1008.09 1008.08 1008.12 1008.23 1008.42 1008.67 1008.96 1009.25 1009.52 1009.73 1009.89 1009.98 1010.02 1010.01 1009.99 1009.95
1007.89 1008.31 1008.90 1009.56 1010.19 1010.68 1010.96 1011.01 1010.83 1010.49 1010.09 1009.71 1009.42 1009.28 1009.28 1009.40 1009.59 1009.77 1009.89 1009.92 1009.84 1009.67 1009.46 1009.23 1009.04 1008.90 1008.81 1008.77 1008.75 1008.72 1008.66 1008.57 1008.44 1008.30 1008.20 1008.15 1008.17 1008.28 1008.47 1008.71 1008.97 1009.22 1009.42 1009.57 1009.65 1009.68 1009.68 1009.66 1009.64
1007.97 1008.54 1009.30 1010.13 1010.93 1011.57 1011.99 1012.14 1012.03 1011.74 1011.34 1010.94 1010.61 1010.41 1010.33 1010.38 1010.48 1010.60 1010.66 1010.64 1010.53 1010.34 1010.11 1009.87 1009.67 1009.52 1009.43 1009.38 1009.34 1009.28 1009.17 1009.02 1008.82 1008.60 1008.40 1008.26 1008.19 1008.21 1008.32 1008.49 1008.69 1008.90 1009.07 1009.19 1009.25 1009.27 1009.27 1009.25 1009.24
1008.01 1008.69 1009.55 1010.50 1011.41 1012.17 1012.68 1012.91 1012.87 1012.60 1012.22 1011.79 1011.41 1011.13 1010.97 1010.92 1010.94 1010.98 1010.98 1010.93 1010.81 1010.63 1010.42 1010.23 1010.07 1009.96 1009.91 1009.88 1009.85 1009.78 1009.66 1009.47 1009.22 1008.94 1008.66 1008.42 1008.26 1008.18 1008.20 1008.28 1008.41 1008.55 1008.67 1008.75 1008.79 1008.79 1008.76 1008.74 1008.72
1008.05 1008.76 1009.68 1010.67 1011.63 1012.44 1013.01 1013.30 1013.31 1013.09 1012.71 1012.28 1011.86 1011.51 1011.27 1011.14 1011.07 1011.03 1010.99 1010.92 1010.80 1010.66 1010.51 1010.38 1010.29 1010.25 1010.25 1010.26 1010.26 1010.21 1010.09 1009.87 1009.59 1009.26 1008.91 1008.59 1008.34 1008.17 1008.09 1008.08 1008.13 1008.19 1008.25 1008.28 1008.28 1008.25 1008.21 1008.16 1008.13
1008.13 1008.82 1009.71 1010.69 1011.64 1012.46 1013.06 1013.39 1013.45 1013.27 1012.93 1012.50 1012.07 1011.68 1011.39 1011.18 1011.04 1010.95 1010.87 1010.79 1010.69 1010.59 1010.50 1010.43 1010.41 1010.43 1010.49 1010.54 1010.56 1010.52 1010.40 1010.18 1009.87 1009.50 1009.11 1008.73 1008.41 1008.16 1007.99 1007.89 1007.85 1007.84 1007.83 1007.81 1007.77 1007.71 1007.64 1007.57 1007.52
1008.32 1008.93 1009.74 1010.64 1011.53 1012.32 1012.91 1013.27 1013.38 1013.25 1012.97 1012.58 1012.17 1011.78 1011.45 1011.20 1011.02 1010.89 1010.79 1010.70 1010.62 1010.54 1010.50 1010.48 1010.50 1010.56 1010.63 1010.70 1010.72 1010.68 1010.55 1010.31 1009.99 1009.61 1009.20 1008.79 1008.42 1008.11 1007.88 1007.71 1007.59 1007.51 1007.44 1007.37 1007.29 1007.21 1007.12 1007.03 1006.96
1008.65 1009.16 1009.84 1010.62 1011.41 1012.14 1012.71 1013.07 1013.22 1013.17 1012.95 1012.63 1012.26 1011.89 1011.57 1011.30 1011.09 1010.93 1010.81 1010.72 1010.64 1010.58 1010.55 1010.54 1010.57 1010.62 1010.67 1010.71 1010.70 1010.63 1010.48 1010.24 1009.92 1009.54 1009.13 1008.72 1008.35 1008.02 1007.75 1007.53 1007.36 1007.23 1007.11 1007.00 1006.89 1006.79 1006.69 1006.60 1006.51
Thickness
5864 5867 5867 5861 5846 5839 5850 5867 5874 5870 5873 5884 5887 5883 5866 5855 5846 5834 5868 5876 5866 5854 5845 5837 5833 5829 5825 5822 5819 5816 5813 5809 5805 5802 5798 5795 5792 5789 5787 5784 5781 5779 5777 5774 5772 5770 5768 5766 5764
5870 5875 5869 5854 5835 5826 5845 5867 5865 5869 5881 5891 5889 5884 5869 5858 5866 5865 5870 5870 5863 5853 5844 5838 5832 5828 5824 5821 5817 5814 5811 5807 5804 5800 5797 5794 5791 5789 5786 5783 5781 5778 5776 5773 5771 5769 5767 5765 5763
5871 5876 5861 5853 5835 5830 5845 5869 5873 5882 5890 5887 5878 5878 5867 5856 5866 5867 5871 5871 5861 5852 5844 5836 5831 5826 5822 5819 5815 5812 5809 5805 5802 5799 5796 5793 5791 5788 5786 5783 5781 5778 5775 5773 5771 5768 5766 5764 5763
5872 5871 5862 5852 5842 5854 5867 5877 5884 5880 5884 5889 5881 5865 5862 5871 5874 5873 5874 5870 5858 5850 5842 5834 5829 5825 5821 5817 5814 5810 5807 5804 5801 5798 5795 5792 5790 5788 5786 5783 5780 5778 5775 5773 5771 5768 5766 5764 5762
5875 5862 5852 5851 5855 5869 5882 5888 5889 5876 5878 5882 5875 5855 5851 5870 5879 5876 5873 5867 5857 5850 5841 5832 5827 5823 5819 5815 5811 5808 5805 5802 5799 5796 5793 5791 5789 5787 5785 5782 5780 5778 5775 5773 5771 5769 5767 5765 5763
5861 5863 5845 5845 5851 5865 5884 5894 5886 5876 5876 5881 5873 5856 5850 5869 5870 5871 5871 5866 5861 5852 5841 5831 5825 5821 5817 5813 5809 5806 5802 5799 5796 5794 5792 5789 5787 5785 5783 5781 5779 5777 5775 5773 5771 5769 5767 5765 5763
5851 5848 5844 5854 5853 5849 5871 5895 5883 5871 5872 5879 5883 5857 5851 5863 5869 5872 5870 5868 5864 5855 5842 5832 5826 5820 5816 5812 5808 5804 5801 5797 5795 5792 5790 5787 5785 5783 5782 5780 5777 5775 5773 5771 5770 5768 5766 5764 5763
5865 5850 5847 5861 5855 5849 5868 5888 5891 5882 5873 5887 5888 5860 5850 5862 5872 5872 5868 5866 5863 5855 5843 5835 5829 5822 5816 5811 5806 5802 5799 5795 5792 5790 5787 5785 5783 5782 5780 5778 5776 5773 5771 5770 5768 5766 5765 5763 5762
5865 5839 5839 5861 5862 5860 5876 5880 5887 5893 5879 5882 5886 5879 5873 5873 5872 5865 5860 5859 5857 5853 5845 5838 5831 5823 5817 5812 5807 5801 5797 5793 5790 5787 5785 5783 5782 5781 5780 5778 5776 5773 5771 5769 5767 5765 5764 5762 5761
5855 5833 5849 5874 5876 5872 5876 5877 5882 5880 5864 5859 5858 5860 5866 5868 5864 5856 5853 5850 5848 5846 5844 5841 5835 5826 5820 5816 5809 5801 5797 5793 5789 5787 5784 5781 5780 5780 5781 5780 5776 5773 5770 5768 5766 5764 5762 5761 5761
5852 5843 5859 5872 5880 5879 5875 5881 5892 5880 5858 5846 5831 5821 5837 5851 5854 5852 5851 5850 5847 5845 5843 5842 5836 5826 5821 5817 5810 5804 5800 5797 5790 5786 5784 5781 5778 5777 5777 5777 5775 5770 5767 5765 5765 5762 5760 5760 5761
5848 5852 5860 5864 5874 5871 5870 5878 5882 5883 5870 5864 5853 5840 5837 5840 5848 5850 5849 5848 5845 5841 5839 5840 5834 5825 5819 5815 5810 5805 5801 5797 5793 5787 5783 5780 5775 5773 5772 5772 5771 5767 5765 5764 5763 5762 5762 5760 5760
5841 5845 5856 5864 5868 5868 5868 5868 5872 5876 5877 5867 5853 5844 5838 5838 5848 5853 5853 5849 5843 5837 5835 5835 5830 5822 5815 5809 5804 5802 5797 5794 5791 5786 5781 5777 5772 5768 5766 5765 5764 5763 5763 5762 5760 5760 5760 5757 5757
5837 5843 5850 5857 5860 5863 5859 5861 5865 5871 5878 5863 5847 5838 5838 5839 5847 5851 5849 5844 5839 5834 5831 5830 5824 5817 5810 5802 5797 5793 5791 5788 5785 5781 5777 5773 5768 5764 5761 5760 5758 5758 5757 5756 5755 5754 5753 5752 5750
5838 5827 5831 5843 5853 5859 5858 5845 5856 5875 5880 5865 5853 5845 5845 5846 5848 5847 5844 5840 5837 5832 5829 5824 5818 5813 5805 5799 5793 5789 5786 5783 5779 5775 5771 5768 5764 5760 5757 5754 5753 5753 5752 5751 5750 5749 5748 5746 5745
5825 5814 5809 5836 5853 5860 5844 5823 5856 5878 5874 5862 5857 5852 5849 5849 5850 5848 5845 5839 5835 5830 5825 5819 5815 5809 5800 5794 5789 5786 5783 5779 5774 5771 5767 5764 5759 5756 5753 5751 5750 5750 5749 5748 5746 5745 5742 5741 5739
5810 5802 5810 5834 5859 5858 5840 5827 5852 5868 5860 5851 5850 5850 5847 5845 5844 5843 5841 5836 5831 5825 5819 5812 5808 5801 5794 5789 5785 5782 5778 5773 5770 5767 5764 5760 5757 5754 5751 5749 5748 5748 5747 5746 5744 5744 5740 5736 5735
5805 5818 5824 5831 5846 5840 5827 5827 5845 5854 5849 5844 5845 5845 5841 5836 5834 5835 5830 5827 5824 5815 5811 5805 5800 5794 5788 5784 5779 5777 5773 5770 5767 5765 5761 5757 5753 5751 5748 5746 5745 5744 5742 5741 5740 5738 5737 5735 5734
5810 5810 5812 5829 5843 5826 5814 5816 5831 5842 5840 5837 5836 5836 5832 5828 5829 5826 5815 5810 5807 5801 5795 5792 5788 5785 5781 5776 5771 5767 5764 5763 5762 5761 5757 5753 5749 5746 5743 5741 5740 5739 5737 5737 5736 5734 5731 5730 5731
5806 5802 5806 5819 5830 5819 5807 5809 5825 5833 5831 5829 5825 5822 5816 5809 5803 5797 5792 5783 5787 5784 5779 5777 5775 5774 5772 5770 5766 5762 5759 5758 5757 5755 5752 5749 5745 5742 5741 5738 5735 5735 5733 5732 5731 5729 5726 5725 5725
5796 5792 5793 5794 5805 5810 5802 5797 5812 5822 5826 5822 5816 5809 5802 5790 5777 5768 5760 5751 5751 5757 5760 5759 5763 5763 5763 5762 5760 5757 5753 5749 5748 5746 5745 5744 5742 5739 5736 5734 5732 5730 5729 5727 5727 5725 5722 5718 5719
5783 5797 5794 5791 5783 5782 5795 5775 5797 5806 5798 5791 5785 5781 5773 5764 5754 5744 5738 5733 5730 5733 5741 5746 5751 5752 5752 5752 5749 5746 5742 5739 5740 5740 5741 5740 5738 5736 5734 5731 5729 5727 5725 5724 5723 5724 5720 5716 5712
5789 5799 5793 5789 5780 5774 5782 5775 5781 5794 5775 5763 5763 5761 5758 5751 5739 5729 5727 5723 5722 5723 5725 5731 5735 5738 5739 5739 5738 5736 5734 5734 5736 5736 5735 5733 5734 5733 5731 5729 5726 5723 5721 5720 5719 5717 5716 5713 5710
5802 5795 5792 5787 5765 5727 5731 5738 5755 5768 5762 5753 5752 5751 5746 5739 5731 5724 5722 5720 5718 5720 5717 5717 5720 5723 5724 5726 5727 5726 5724 5724 5724 5724 5724 5725 5727 5728 5729 5727 5723 5720 5717 5716 5715 5714 5713 5711 5709
5792 5775 5757 5748 5723 5706 5721 5726 5734 5747 5750 5746 5742 5739 5737 5733 5726 5721 5717 5714 5712 5710 5708 5708 5709 5709 5709 5711 5712 5714 5715 5715 5714 5715 5716 5718 5719 5721 5723 5723 5719 5715 5713 5712 5712 5711 5710 5709 5707
5782 5776 5752 5737 5739 5746 5744 5735 5725 5737 5738 5737 5735 5732 5730 5726 5721 5715 5710 5707 5704 5701 5699 5697 5695 5695 5696 5697 5697 5699 5700 5702 5703 5705 5708 5711 5713 5715 5716 5715 5713 5711 5709 5708 5708 5707 5707 5707 5706
5777 5774 5781 5762 5759 5754 5756 5727 5718 5723 5722 5723 5722 5720 5717 5715 5712 5707 5702 5697 5693 5690 5687 5685 5684 5683 5683 5683 5683 5684 5685 5686 5689 5692 5696 5699 5701 5704 5706 5707 5706 5705 5704 5703 5702 5702 5703 5703 5702
5793 5783 5770 5752 5734 5730 5749 5726 5708 5705 5703 5709 5707 5705 5704 5703 5700 5696 5692 5688 5683 5679 5675 5673 5671 5669 5668 5668 5668 5669 5670 5671 5674 5677 5679 5682 5686 5689 5692 5694 5695 5696 5697 5697 5697 5697 5699 5699 5699
5781 5776 5768 5757 5746 5724 5718 5714 5716 5706 5703 5700 5698 5696 5693 5689 5686 5682 5679 5676 5672 5668 5663 5658 5655 5653 5652 5651 5651 5651 5653 5655 5657 5660 5663 5666 5670 5674 5678 5681 5683 5686 5688 5690 5691 5692 5693 5694 5695
5784 5772 5762 5737 5731 5733 5721 5699 5713 5706 5702 5695 5689 5686 5681 5677 5673 5669 5666 5661 5656 5651 5646 5642 5638 5635 5634 5633 5633 5633 5634 5635 5638 5642 5645 5649 5653 5658 5663 5667 5671 5675 5679 5682 5684 5685 5688 5688 5689